{"data":{"norad_id":63870,"epoch":"2026-05-25T03:05:07.395648Z","epoch_age_seconds":57272,"freshness":"FRESH","line1":"1 63870U 25094G   26145.12855782  .00003365  00000+0  28958-3 0  9991","line2":"2 63870  70.0022  41.6987 0002695 269.8477  90.2373 14.98338223 58658","mean_motion":14.98338223,"eccentricity":0.0002695,"inclination_deg":70.0022,"raan_deg":41.6987,"arg_perigee_deg":269.8477,"mean_anomaly_deg":90.2373,"bstar":0.00028958,"rev_number":5865,"period_min":96.106471682796,"perigee_km":570.15739198049,"apogee_km":573.90353224257,"semimajor_km":6950.1674621115,"source":"CELESTRAK","updated_at":"2026-05-25T13:38:20.170317Z"}}